Flag Weather past 2 weeks in Tabatinga, Amazonas, Brazil

Now
79 °F

Clear.


Feels Like: 82 °F
Forecast: 73 / 88 °F
Wind: No wind

Location: Leticia / Vasquez Cobo

Current Time: Nov 23, 2014 at 11:08:03 PM

Latest Report: Nov 23, 2014 at 10:00 PM


Visibility: 10 mi

Pressure: 29.82 "Hg

Humidity: 89%

Dew point: 75 °F

Location of TabatingaLocation

Historic Weather in Tabatinga — Graph

°F

Tabatinga temperature yesterday

Maximum temperature yesterday: 90 °F (at 11:00 AM)
Minimum temperature yesterday: 75 °F (at 4:00 AM)
Average temperature yesterday: 83 °F

Past Weeks' High & Low Weather Summary

 TemperatureHumidityPressure
High93 °F (Nov 19, 1:00 PM)100% (Nov 9, 3:00 AM)29.97 "Hg (Nov 9, 3:00 AM)
Low72 °F (Nov 10, 4:00 AM)63% (Nov 23, 3:00 PM)29.65 "Hg (Nov 11, 5:00 PM)
Average81 °F88%29.80 "Hg
* Reported Nov 8 9:00 PM — Nov 23 9:00 PM, Tabatinga, Weather by CustomWeather, © 2014

Note: Actual official high and low records may vary slightly from our data, if they occured in-between our weather recording intervals... More about our weather records

Advertising

Tabatinga weather history for previous 24 hours

 ConditionsComfort  
Time TempWeatherWind HumidityBarometerVisibility
9:00 PM
Nov 23
79 °FClear.No wind89%29.79 "Hg10 mi
8:00 PM81 °FClear.No wind89%29.75 "Hg10 mi
7:00 PM81 °FPassing clouds.No wind89%29.72 "HgN/A
6:00 PM82 °FPassing clouds.No wind89%29.70 "HgN/A
5:00 PM88 °FPassing clouds.2 mph70%29.70 "HgN/A
4:00 PM90 °FPassing clouds.2 mph67%29.69 "HgN/A
3:00 PM91 °FScattered clouds.2 mph63%29.72 "HgN/A
2:00 PM90 °FScattered clouds.No wind67%29.75 "HgN/A
1:00 PM90 °FScattered clouds.5 mph67%29.81 "HgN/A
12:00 PM90 °FScattered clouds.6 mph67%29.86 "HgN/A
11:00 AM88 °FPartly sunny.6 mph70%29.88 "HgN/A
10:00 AM84 °FBroken clouds.5 mph79%29.89 "HgN/A
9:00 AM79 °FBroken clouds.5 mph89%29.88 "HgN/A
8:00 AM77 °FBroken clouds.No wind94%29.85 "HgN/A
7:00 AM77 °FPartly sunny.No wind94%29.83 "HgN/A
6:00 AM75 °FLow clouds.No wind94%29.80 "HgN/A
5:00 AM75 °FPassing clouds.No wind94%29.77 "HgN/A
4:00 AM75 °FOvercast.No wind94%29.77 "HgN/A
1:00 AM75 °FOvercast.No wind94%29.82 "HgN/A
12:00 AM75 °FOvercast.No wind100%29.83 "HgN/A
11:00 PM
Nov 22
75 °FOvercast.No wind100%29.84 "HgN/A
Weather by CustomWeather, © 2014

See weather overviewHow to use our weather pages